Theta_e
316 314 314 316 322 320 322 321 316 319 319 318 318 319 322 320 329 324 325 335 332 331 334 336 335 345 337 336 335 336 340 343 342 341 339 339 338 339 340 339 339 340 341 341 340 339 340 339 336
317 313 315 315 321 321 320 318 320 319 318 317 317 317 319 321 325 331 333 336 332 330 331 334 334 344 337 336 335 335 338 344 342 340 339 339 339 339 339 339 339 340 340 340 341 340 339 337 336
314 316 319 318 318 317 320 319 319 318 316 317 318 317 319 323 332 333 326 329 333 332 329 331 332 342 338 336 335 335 338 345 342 340 339 338 338 338 336 337 338 338 339 338 340 339 337 337 335
315 316 312 318 317 318 319 319 317 317 316 315 317 319 318 320 332 331 325 327 334 334 332 331 332 341 338 336 335 335 336 340 342 340 339 339 338 336 336 334 337 337 337 337 339 336 335 336 335
310 314 317 317 316 315 316 317 316 317 316 316 316 319 321 321 326 330 327 327 331 334 333 333 333 335 336 335 335 335 335 337 341 340 338 337 334 335 334 334 336 336 335 335 335 334 334 335 334
315 312 315 314 313 313 314 314 315 317 316 317 317 318 321 324 330 330 329 329 331 333 335 335 335 336 334 334 335 336 336 337 335 338 338 338 334 335 330 333 333 334 332 333 334 333 334 334 333
312 314 314 313 313 313 314 314 316 316 316 317 318 320 321 326 326 332 333 332 335 336 334 336 337 338 336 333 335 337 336 336 336 341 336 333 335 333 325 331 325 331 333 332 332 334 333 333 332
312 314 314 313 312 313 314 315 315 316 316 314 319 322 319 320 324 330 335 337 337 338 336 336 337 339 341 340 337 336 338 336 338 339 331 335 334 329 330 328 327 329 325 331 332 333 332 331 330
310 315 314 312 313 313 314 315 314 314 315 314 315 318 318 321 324 332 335 337 339 339 338 337 337 338 341 340 340 338 337 336 336 337 335 333 330 329 328 324 324 323 324 331 331 331 331 329 328
315 315 313 314 313 313 314 314 315 315 315 316 316 316 315 325 330 332 335 337 338 340 338 338 338 338 342 343 340 339 338 337 336 337 333 330 330 331 329 326 325 325 328 330 331 330 328 325 326
314 315 313 313 313 313 313 313 314 315 316 317 318 318 317 321 327 331 333 335 336 336 338 338 338 340 341 342 340 338 338 338 337 336 334 332 330 326 327 328 328 329 330 329 329 327 328 328 327
314 313 314 313 313 314 314 314 316 315 317 317 317 316 313 316 323 329 332 333 334 334 335 336 338 339 340 341 341 339 338 339 338 337 335 332 329 326 328 330 331 331 331 329 327 327 327 328 326
314 314 313 313 314 314 314 316 316 315 315 314 313 313 315 315 317 325 329 331 332 332 332 332 335 338 339 340 340 339 336 335 337 336 335 332 331 329 327 328 329 329 330 330 326 326 325 325 324
315 314 314 314 314 315 316 316 315 315 314 313 314 316 315 316 318 323 328 329 331 330 331 331 333 336 337 338 338 338 337 334 334 336 334 333 331 328 327 327 328 330 329 329 325 327 326 324 323
311 312 312 311 313 314 314 315 314 316 315 313 314 316 316 316 316 319 322 322 321 320 322 328 330 333 336 336 336 334 334 334 334 334 333 332 329 327 327 327 326 329 328 327 325 325 323 322 323
309 310 312 312 311 313 314 317 317 312 312 310 310 311 313 315 314 315 316 317 317 319 320 324 328 332 334 335 334 331 330 329 328 328 328 331 329 328 328 328 328 328 328 326 325 323 321 321 322
308 311 311 312 312 314 315 316 314 310 307 308 309 310 311 312 314 313 313 314 314 315 316 322 328 331 332 333 332 330 331 330 327 327 327 329 329 329 328 328 328 327 327 324 323 322 321 321 321
308 309 309 311 310 310 312 313 311 307 306 307 308 309 311 312 313 313 313 313 313 313 316 323 329 330 331 331 330 330 328 327 327 327 328 327 328 329 328 328 327 326 324 322 321 321 320 321 321
308 309 310 308 308 309 310 309 308 307 305 307 309 310 311 313 314 312 312 312 314 320 325 328 330 330 329 329 328 327 325 325 325 324 324 325 326 327 328 328 327 325 324 321 321 319 319 320 320
306 308 309 307 307 306 307 308 308 308 308 309 310 311 312 313 313 316 316 315 318 324 328 329 330 329 330 330 329 328 326 326 329 328 326 326 326 326 326 327 325 324 323 321 319 319 319 320 319
305 306 307 306 306 307 307 311 311 310 308 310 311 312 311 311 319 320 320 319 320 324 327 329 330 329 330 330 329 328 326 326 327 327 327 326 326 325 325 326 324 323 321 319 319 319 319 319 319
308 305 305 305 309 312 310 312 311 311 311 311 311 311 315 321 321 319 319 319 322 323 327 328 329 328 329 329 328 328 327 327 326 328 327 326 325 325 324 323 323 321 320 318 318 318 319 318 320
308 310 307 309 311 310 311 312 310 309 309 311 312 318 321 321 320 319 319 318 322 324 327 328 328 328 327 327 327 328 326 326 328 328 326 326 325 323 323 323 323 322 319 319 316 317 318 319 320
311 311 311 310 311 311 311 310 309 309 311 311 319 322 322 321 320 318 318 318 320 325 326 327 328 325 327 328 327 327 326 326 327 327 327 325 326 325 323 324 323 323 318 317 315 316 317 318 319
310 310 309 311 312 308 309 310 310 310 314 320 321 320 321 318 317 317 318 319 318 324 323 325 325 324 324 327 327 326 326 328 327 327 328 327 326 326 325 325 323 322 323 319 314 315 316 317 319
310 310 309 306 308 307 309 310 312 317 318 317 317 318 317 317 316 317 318 318 318 319 324 323 324 324 323 325 325 325 327 327 328 327 328 327 327 326 325 325 325 324 321 320 315 314 316 317 318
308 309 309 308 309 312 311 310 313 315 315 313 314 317 318 317 317 318 319 318 320 319 320 323 323 324 324 323 324 325 325 326 326 326 327 327 327 327 327 325 324 323 324 323 318 315 316 316 317
310 310 311 311 313 312 310 311 314 311 310 309 310 314 318 318 318 318 319 320 320 323 322 324 323 323 323 324 325 325 325 324 324 324 324 324 325 326 327 326 326 325 323 322 319 317 317 316 317
309 312 313 313 314 311 311 311 312 310 309 306 306 309 316 319 318 317 318 319 317 319 324 323 323 323 323 324 325 325 324 323 323 322 322 323 324 324 324 324 326 325 325 323 321 318 317 317 317
311 313 313 314 315 315 314 313 312 308 306 305 305 305 312 318 318 316 317 317 317 315 322 323 322 323 323 324 324 324 322 322 322 321 322 322 323 324 324 325 325 324 325 322 322 319 318 317 317
Wind_Speed
8 5 4 4 2 1 2 3 2 1 1 2 4 4 7 2 5 2 2 20 11 15 17 14 15 16 18 20 20 19 19 25 26 26 29 30 30 30 30 28 28 28 26 24 25 26 24 24 25
12 8 4 3 2 2 2 2 4 4 2 4 4 3 4 2 3 2 5 22 15 17 17 17 17 18 18 22 21 20 20 24 26 27 29 30 30 30 29 29 28 27 24 22 20 20 22 23 25
10 5 2 3 3 4 3 5 5 3 9 3 3 2 2 2 2 3 10 22 17 18 19 19 17 20 20 23 22 22 22 25 27 28 30 31 32 30 30 28 28 26 24 22 20 18 21 23 25
4 2 3 3 9 5 4 3 3 6 2 4 2 3 2 5 4 6 16 23 22 18 19 18 17 21 22 23 23 23 24 25 28 30 30 29 27 24 23 18 20 20 20 20 19 21 19 23 26
4 1 2 3 5 4 6 5 4 5 4 2 3 3 4 3 8 5 16 24 24 22 21 20 19 21 23 24 24 24 24 26 29 30 30 29 25 13 20 10 15 15 16 16 17 20 19 24 25
2 1 2 7 8 4 5 7 3 1 3 4 4 1 4 4 4 7 20 23 25 24 23 21 20 22 24 25 26 25 25 26 28 29 31 32 28 31 29 22 18 18 17 17 17 19 22 25 24
4 3 4 5 5 4 5 5 4 3 2 3 3 3 1 3 6 7 15 21 22 22 22 21 23 25 25 26 26 26 26 27 27 32 32 30 32 34 26 30 26 20 18 17 18 21 23 25 24
4 3 4 4 9 7 4 5 6 2 2 5 1 1 4 7 10 7 11 15 19 21 23 24 24 26 25 26 26 26 26 27 29 33 29 33 33 28 32 32 29 28 20 17 20 22 24 25 24
4 4 8 9 7 4 3 3 1 0 2 3 3 2 8 11 7 5 8 12 17 22 24 26 27 28 27 27 27 27 27 27 29 31 33 33 29 31 34 31 29 22 21 26 23 21 23 24 23
5 6 11 7 8 6 3 2 5 4 6 6 6 7 10 6 6 10 14 17 20 22 28 29 28 29 29 28 28 29 28 28 29 30 31 32 33 30 29 29 26 23 25 26 23 23 24 24 21
6 11 6 6 12 6 4 6 4 9 12 8 13 16 4 8 9 12 17 20 27 23 23 29 30 29 31 31 29 30 30 29 31 29 31 35 37 35 29 27 27 27 28 28 25 25 25 22 21
6 8 11 6 6 6 9 6 10 10 10 14 13 12 7 10 10 11 16 19 16 13 20 26 29 32 33 32 31 29 30 31 33 35 36 38 37 36 28 27 30 27 26 23 30 31 24 22 20
7 7 8 11 11 9 9 15 13 11 13 13 12 9 13 10 11 12 15 17 15 20 24 29 31 32 34 34 32 29 31 32 33 34 37 40 33 31 36 31 32 31 28 27 33 30 27 21 22
3 7 15 10 12 12 15 17 7 7 9 11 9 12 8 7 9 9 9 16 17 24 26 28 35 36 34 36 34 33 32 32 32 31 34 40 38 40 36 37 31 34 34 27 34 38 33 20 19
5 8 9 8 7 8 7 11 11 17 7 7 5 6 9 10 10 13 16 15 20 25 25 29 32 39 39 37 34 33 32 31 32 30 30 38 42 42 40 39 39 34 40 33 33 32 33 20 19
3 3 5 4 9 6 10 15 8 3 4 6 9 8 9 12 11 16 19 21 25 26 25 27 28 35 41 40 37 34 31 28 27 28 33 34 40 41 38 35 34 38 40 39 39 32 27 21 21
4 11 10 3 7 2 11 5 7 2 6 12 12 12 12 12 13 17 19 21 24 26 26 25 27 32 39 37 36 33 29 26 25 28 30 35 37 38 39 38 36 41 42 40 35 31 30 24 22
11 9 6 8 2 2 11 12 8 10 9 11 12 14 12 12 15 19 22 23 23 27 29 24 26 28 32 34 32 27 23 23 23 26 28 32 32 39 43 39 40 42 38 34 34 32 26 26 24
9 8 8 3 3 6 16 19 14 14 10 13 13 12 10 11 12 18 22 20 21 20 16 19 23 26 31 31 28 25 23 23 24 25 24 28 32 37 40 35 43 43 42 40 36 34 30 23 23
15 17 17 8 11 7 13 18 11 14 11 11 10 9 10 8 12 14 20 20 16 15 12 16 20 26 30 29 26 18 21 20 21 22 23 26 31 35 35 39 45 45 41 36 39 37 30 24 26
16 18 15 13 2 6 8 13 6 3 4 3 7 9 7 6 11 14 17 23 19 13 14 16 19 22 26 25 23 15 15 12 19 22 23 23 27 26 29 34 42 43 43 41 40 36 33 25 26
17 13 16 12 6 6 2 7 3 3 5 4 5 3 4 9 12 14 17 20 26 18 13 14 18 23 26 27 23 22 18 13 14 18 19 20 18 25 33 37 43 42 40 38 38 36 36 33 29
13 8 15 12 11 2 7 5 4 4 2 0 3 5 5 7 10 14 16 21 29 13 11 15 19 23 26 31 27 23 19 17 13 16 19 19 23 29 34 39 41 41 37 39 39 34 33 31 30
7 5 3 3 4 6 12 10 4 5 5 2 3 6 7 9 12 12 16 21 25 12 6 12 17 21 24 25 26 25 24 21 17 19 21 24 23 27 30 30 34 40 36 38 38 38 36 34 32
7 7 4 4 5 5 8 9 1 6 4 3 5 8 10 11 14 15 15 16 22 16 8 11 16 20 24 24 22 24 24 20 21 20 21 21 24 24 29 30 29 29 33 36 36 36 36 36 34
14 12 5 8 7 4 2 6 5 8 8 5 5 6 8 13 14 15 15 15 21 19 10 12 16 19 21 23 19 18 20 18 18 23 20 25 20 26 30 34 33 34 32 32 37 35 35 35 34
6 8 11 6 2 2 4 2 7 8 10 14 14 11 12 13 14 16 17 19 25 22 16 17 18 19 21 21 20 18 18 22 20 20 24 21 23 25 23 34 33 34 37 35 35 34 34 35 35
1 4 4 2 7 8 6 4 5 7 9 11 14 14 13 13 13 13 14 20 27 28 16 14 20 20 22 22 22 20 19 17 19 19 18 18 21 21 26 30 30 36 37 38 38 34 34 37 35
3 1 3 4 1 5 5 3 8 6 6 10 12 12 11 12 12 13 13 20 29 33 13 11 16 19 22 23 23 20 18 19 19 18 17 15 17 17 19 25 29 35 44 42 40 36 34 36 35
3 1 3 4 5 1 1 3 11 4 6 9 12 14 11 7 9 11 11 15 24 27 23 14 18 18 23 24 23 21 20 20 18 19 14 12 14 17 20 24 30 35 33 43 45 40 39 39 36
Wind_Direction
165 138 122 62 210 291 248 238 282 237 244 186 135 159 193 154 171 204 244 174 165 175 186 193 199 181 178 181 182 181 177 182 181 177 173 171 169 167 164 159 155 155 153 145 145 144 141 142 142
158 138 69 98 186 222 211 233 212 189 281 276 197 173 194 235 222 238 157 178 176 175 184 190 198 183 180 184 182 179 174 175 180 177 176 174 170 168 165 159 157 156 152 152 146 143 142 147 150
142 134 128 115 148 214 217 202 176 283 296 220 158 235 181 218 214 209 195 182 183 183 184 191 193 184 183 189 186 179 174 169 180 180 180 177 175 172 169 164 158 152 155 159 156 155 153 153 154
147 84 83 203 221 236 231 194 188 303 217 225 152 263 248 225 178 213 194 188 191 189 194 191 191 184 185 191 192 183 178 177 177 184 179 178 180 175 168 168 154 154 158 162 160 156 161 161 160
62 68 175 217 231 250 237 259 253 302 293 252 187 228 234 225 219 209 193 194 197 198 196 194 193 186 188 193 197 191 183 180 180 184 177 179 166 190 156 179 159 163 162 166 170 160 169 169 165
95 90 205 235 235 223 257 233 244 254 324 317 164 219 255 12 296 233 197 197 198 197 196 197 197 189 190 196 197 200 190 187 187 186 179 178 171 176 152 197 174 182 178 175 180 174 174 173 167
174 159 235 258 255 250 233 183 190 189 294 33 306 205 288 26 340 251 204 201 198 198 198 199 200 194 195 195 200 198 200 194 193 185 185 182 183 181 182 181 179 186 179 171 181 178 179 175 169
137 192 199 229 259 270 230 176 154 136 67 316 237 68 329 339 332 234 219 209 201 202 205 203 204 200 197 197 197 202 202 200 197 189 198 189 184 187 175 175 176 176 166 184 183 188 181 179 173
142 210 221 223 219 231 180 177 254 186 220 342 262 249 302 310 297 225 206 208 201 208 209 208 207 204 202 199 197 200 205 203 203 200 192 191 193 183 179 182 180 177 172 178 195 191 183 180 175
205 221 213 211 219 238 207 253 304 296 312 288 268 268 262 287 258 237 218 214 207 209 210 209 210 208 205 204 197 201 202 204 203 203 199 196 190 182 180 183 190 190 175 182 189 187 184 173 167
198 239 208 222 236 245 246 252 225 278 283 260 299 300 259 281 258 247 242 232 220 219 211 210 212 211 210 207 200 203 203 205 204 203 202 199 188 184 187 194 192 178 176 177 182 180 176 174 171
238 233 226 222 224 226 246 264 268 236 253 271 264 280 281 281 275 253 248 247 240 233 228 222 217 215 214 212 206 201 205 205 206 207 202 196 196 196 195 190 183 177 176 173 173 172 179 177 172
243 252 226 234 237 229 249 259 256 251 247 255 267 266 275 287 274 265 255 260 251 247 243 237 222 218 216 214 212 206 205 211 212 214 214 209 204 200 199 192 189 185 178 180 177 172 176 176 177
222 247 256 256 243 254 254 257 247 242 236 243 260 273 276 257 269 282 260 262 249 255 251 245 233 221 214 215 217 216 212 211 214 215 220 215 206 203 202 196 192 185 187 186 179 177 183 177 177
255 267 262 233 225 231 228 250 240 251 245 238 240 266 291 280 272 250 254 258 269 269 266 246 238 224 216 214 214 215 214 210 213 214 223 222 211 207 207 200 194 189 192 186 176 172 182 174 177
245 220 257 211 215 238 193 251 263 121 98 325 311 286 274 278 273 272 264 265 272 268 264 255 232 217 215 213 212 214 214 213 221 225 216 214 212 211 205 196 192 190 186 186 179 171 174 175 177
238 253 236 277 208 160 203 253 225 168 354 327 314 303 294 288 283 273 272 270 271 271 275 251 223 209 210 208 210 212 217 221 227 222 216 215 214 207 201 198 190 192 186 181 175 172 174 175 178
223 235 243 228 190 215 250 252 273 306 316 280 278 280 280 284 290 303 300 290 285 284 280 244 213 204 200 199 201 205 213 223 215 209 210 211 209 214 210 203 185 188 177 172 175 172 172 173 172
237 238 234 191 209 304 272 270 272 272 276 268 266 264 275 288 296 300 294 299 300 287 259 221 202 196 184 183 180 194 202 207 216 218 220 217 221 224 220 193 188 185 182 176 175 167 162 164 162
232 245 248 264 253 235 272 281 274 259 256 246 255 277 276 305 310 316 331 331 314 285 256 225 206 192 189 182 181 184 193 209 216 218 224 231 241 242 226 200 177 184 183 178 173 173 165 166 169
232 234 239 241 279 252 279 284 250 220 208 250 238 254 312 310 337 334 337 338 330 279 242 220 206 193 186 181 173 168 185 210 216 223 229 231 239 231 216 198 178 174 177 178 177 173 171 165 178
245 219 225 203 201 252 244 293 240 180 154 233 284 356 5 4 355 353 338 336 333 296 238 217 197 188 180 178 178 181 177 185 203 199 215 209 214 201 191 175 175 175 178 176 177 177 178 169 174
244 194 208 197 209 235 236 259 254 199 318 208 346 8 15 12 2 347 348 338 336 319 231 210 196 186 180 181 179 182 181 190 188 191 198 187 185 175 175 182 184 179 178 179 178 179 183 183 175
182 171 124 123 160 238 219 215 183 219 184 314 360 25 8 356 346 346 344 345 352 337 236 205 193 190 185 183 179 180 184 182 179 190 185 188 181 192 182 183 186 189 182 181 182 185 185 184 185
199 159 171 186 187 243 201 199 225 225 74 80 19 3 9 4 353 347 342 345 349 347 284 227 201 199 191 187 186 180 183 182 186 190 190 181 188 187 197 196 190 193 193 193 184 186 188 188 185
194 199 192 222 217 213 180 215 117 86 82 66 29 360 357 359 1 352 340 335 341 339 298 249 222 205 197 189 186 192 190 184 189 190 193 200 189 195 199 201 202 202 199 201 198 191 192 191 191
174 202 226 245 90 196 200 200 103 70 47 23 11 357 353 349 352 348 341 341 334 329 308 236 227 212 195 185 184 196 198 197 199 198 206 199 204 212 190 205 204 202 205 205 202 193 192 192 193
199 139 155 201 195 220 195 213 139 62 47 25 9 355 342 342 347 348 349 348 344 342 311 226 219 209 191 181 184 192 198 194 204 210 211 220 222 215 208 215 201 206 208 201 199 196 194 190 190
320 9 42 108 313 238 238 191 168 134 59 8 350 341 344 337 337 337 342 0 354 355 319 227 211 205 182 180 181 183 191 196 206 213 222 226 231 224 222 226 215 203 204 205 196 193 191 190 182
79 359 3 257 189 137 44 235 194 161 346 339 332 332 329 321 332 329 330 4 355 349 319 226 203 198 183 186 184 181 195 195 201 212 220 224 231 237 240 238 238 224 205 195 192 186 189 188 185